Location: Bailleul
(50.3375°N, 2.8513°E)
Time: 07:06:50
(UTC+00:00)

Cosmos 2016 Rocket - Pass Details

Date: 01 November 2021
Orbit: 946 x 1001 km, 83.0° (Epoch: 29 November)

Event Time Altitude Azimuth Distance (km) Brightness Sun altitude
Rises 20:47:56 0° 243° (WSW) 3,636 7.3 -41.4°
Reaches altitude 10° 20:51:27 10° 263° (W) 2,686 6.7 -41.8°
Maximum altitude 20:55:16 17° 302° (WNW) 2,225 6.4 -42.4°
Drops below altitude 10° 20:59:06 10° 341° (NNW) 2,683 6.7 -42.9°
Sets 21:02:38 0° 2° (N) 3,630 7.3 -43.3°
